IRIDIUM 7 (24793 NORAD) Tracking and Keplerian Element Data

This shows tracking and keplerian element data for the satellite.

Feedback or suggestion? Click here.




ElementValue
Catalog24793
NameIRIDIUM 7
Epoch Orbit45277
Epoch Day34.9325748
Epoch Year2025
RAAN232.7022
Inclination86.393
Eccentricity0.000196
Argument of Perigee97.9711
Mean Anonmoly262.1709
Mean Motion14.35745375
Decay Rate7.23E-06
L11 24793U 97020B 25034.93257480 .00000723 00000+0 24336-3 0 9997
L22 24793 86.3930 232.7022 0001960 97.9711 262.1709 14.35745375452770



Live tracking and technical data element details for IRIDIUM 7 (NORAD 24793). IRIDIUM 7 can be tracked NOW for your location showing map with azimuth and elevation plus other details from your city location.







IsCatalogInMostPopularTable: catalog: 24793, numindb: 499
Update: records affected: 1



GetName: 24793 IRIDIUM 7

Hit Count: updated at: Thu, 15 May 2025 10:33:30 GMT